Ketchikan, AK

9:01 AM AKDT on October 16, 2018 (GMT -0800)
Ketchikan International

Weather History for PAKT - October, 2018

Change the Weather History Date:

Thursday, October 11, 2018

  Actual Average Record
Temperature  
Mean Temperature 50 °F -  
Max Temperature 52 °F 52 °F 64 °F (1980)
Min Temperature 48 °F 41 °F 22 °F (1972)
Degree Days  
Heating Degree Days 15    
Moisture  
Dew Point 47 °F    
Average Humidity 91    
Maximum Humidity 96    
Minimum Humidity 74    
Precipitation  
Precipitation 0.99 in - - ()
Sea Level Pressure  
Sea Level Pressure 29.89 in    
Wind  
Wind Speed 12 mph (SE)    
Max Wind Speed 18 mph    
Max Gust Speed 25 mph    
Visibility 4 miles    
Events Rain    
Averages and records for this station are not official NWS values.
T = Trace of Precipitation, MM = Missing Value Source: NWS Daily Summary

Daily Weather History Graph

Daily Weather History Graph

Search for Another Location

Airport or City:

Astronomy

Oct. 11, 2018 Rise Set
Actual Time 7:09 AM AKDT 5:56 PM AKDT
Civil Twilight 6:32 AM AKDT 6:33 PM AKDT
Nautical Twilight 5:50 AM AKDT 7:15 PM AKDT
Astronomical Twilight 5:07 AM AKDT 7:58 PM AKDT
Moon 10:09 AM AKDT (10/11) 7:34 PM AKDT (10/11)
Length of Visible Light 12h 00m
Length of Day
10h 47m
Waxing Crescent, 9% of the Moon is Illuminated
Oct 11
Waxing Crescent
Oct 16
First Quarter
Oct 24
Full
Oct 31
Last Quarter
Nov 7
New

Hourly Weather History & Observations

Time (AKDT) Temp. Dew Point Humidity Pressure Visibility Wind Dir Wind Speed Gust Speed Precip Events Conditions
12:03 AM 48.0 °F 45.0 °F 89% 30.04 in 6.0 mi SSE 6.9 mph - 0.01 in Rain Light Rain
12:53 AM 48.0 °F 45.0 °F 89% 30.03 in 3.0 mi SSE 6.9 mph - 0.03 in Rain Light Rain
1:53 AM 48.0 °F 45.0 °F 89% 30.01 in 8.0 mi SSE 13.8 mph - 0.01 in   Overcast
2:29 AM 48.0 °F 45.0 °F 89% 29.99 in 4.0 mi SSE 13.8 mph - N/A   Overcast
2:53 AM 48.0 °F 46.0 °F 93% 29.99 in 3.0 mi SE 13.8 mph - 0.01 in Rain Light Rain
3:07 AM 48.0 °F 45.0 °F 89% 29.98 in 4.0 mi SE 13.8 mph 23.0 mph 0.00 in Rain Light Rain
3:31 AM 48.0 °F 46.0 °F 93% 29.97 in 2.0 mi SE 16.1 mph - 0.01 in Rain Light Rain
3:51 AM 48.2 °F 46.4 °F 93% 29.96 in 1.8 mi SE 13.8 mph - 0.03 in Rain Light Rain
3:53 AM 48.0 °F 46.0 °F 93% 29.96 in 2.0 mi SE 15.0 mph - 0.03 in Rain Light Rain
4:17 AM 48.0 °F 46.0 °F 93% 29.95 in 2.5 mi SE 13.8 mph - 0.01 in Rain Light Rain
4:42 AM 48.9 °F 46.0 °F 90% 29.94 in 2.5 mi SSE 13.8 mph 23.0 mph 0.03 in Rain Light Rain
4:46 AM 48.9 °F 46.0 °F 90% 29.94 in 2.0 mi SSE 12.7 mph 23.0 mph 0.04 in Rain Rain
4:53 AM 48.9 °F 46.9 °F 93% 29.95 in 2.5 mi SE 12.7 mph 21.9 mph 0.05 in Rain Light Rain
5:12 AM 48.9 °F 46.9 °F 93% 29.94 in 3.0 mi SSE 11.5 mph 21.9 mph 0.02 in Rain Light Rain
5:36 AM 48.9 °F 46.9 °F 93% 29.94 in 4.0 mi SSE 12.7 mph 19.6 mph 0.04 in Rain Light Rain
5:53 AM 48.9 °F 46.9 °F 93% 29.94 in 3.0 mi SE 18.4 mph - 0.04 in Rain Light Rain
6:11 AM 48.2 °F 46.4 °F 93% 29.93 in 3.0 mi SE 16.1 mph - N/A Rain Light Rain
6:53 AM 48.2 °F 46.4 °F 93% 29.92 in 3.0 mi SSE 11.5 mph - N/A Rain Light Rain
7:35 AM 48.9 °F 46.9 °F 93% 29.90 in 3.0 mi SE 15.0 mph - 0.04 in Rain Light Rain
7:41 AM 48.2 °F 46.4 °F 93% 29.90 in 3.0 mi SSE 12.7 mph 21.9 mph N/A Rain Light Rain
7:53 AM 48.2 °F 46.4 °F 93% 29.90 in 3.0 mi SE 17.3 mph 24.2 mph N/A Rain Light Rain
8:53 AM 50.0 °F 48.2 °F 94% 29.90 in 3.0 mi SE 13.8 mph - N/A Rain Light Rain
9:50 AM 50.0 °F 48.2 °F 94% 29.88 in 2.0 mi SE 13.8 mph - N/A Rain Light Rain
9:53 AM 50.0 °F 48.2 °F 94% 29.89 in 2.0 mi SE 13.8 mph - N/A Rain Light Rain
10:53 AM 51.1 °F 48.9 °F 92% 29.87 in 2.0 mi ESE 16.1 mph - 0.02 in Rain Light Rain
11:53 AM 51.1 °F 50.0 °F 96% 29.85 in 2.0 mi ESE 18.4 mph - 0.04 in Rain Rain
12:53 PM 51.8 °F 48.2 °F 88% 29.82 in 2.0 mi ESE 18.4 mph - N/A Rain Light Rain
1:53 PM 51.1 °F 48.9 °F 92% 29.80 in 2.0 mi ESE 13.8 mph 21.9 mph 0.07 in Rain Light Rain
2:17 PM 51.8 °F 48.2 °F 88% 29.79 in 3.0 mi ESE 17.3 mph - N/A Rain Rain
2:53 PM 51.8 °F 50.0 °F 94% 29.77 in 3.0 mi ESE 18.4 mph - N/A Rain Rain
3:53 PM 51.1 °F 50.0 °F 96% 29.75 in 3.0 mi SE 11.5 mph - 0.17 in Rain Heavy Rain
4:53 PM 52.0 °F 50.0 °F 93% 29.73 in 3.0 mi SE 4.6 mph - 0.27 in Rain Rain
5:09 PM 51.1 °F 48.9 °F 92% 29.72 in 4.0 mi NW 10.4 mph 19.6 mph 0.04 in Rain Rain
5:53 PM 50.0 °F 48.0 °F 93% 29.73 in 4.0 mi NW 16.1 mph 25.3 mph 0.15 in Rain Rain
6:32 PM 50.0 °F 46.9 °F 89% 29.74 in 10.0 mi NW 12.7 mph 25.3 mph 0.06 in Rain Light Rain
6:53 PM 50.0 °F 46.9 °F 89% 29.76 in 7.0 mi NW 13.8 mph 20.7 mph 0.08 in Rain Light Rain
7:53 PM 48.9 °F 45.0 °F 86% 29.81 in 10.0 mi NW 13.8 mph 19.6 mph 0.02 in   Overcast
8:53 PM 50.0 °F 45.0 °F 83% 29.85 in 10.0 mi NW 10.4 mph 19.6 mph N/A   Overcast
9:53 PM 50.0 °F 45.0 °F 83% 29.90 in 10.0 mi NW 11.5 mph - N/A   Overcast
10:53 PM 50.0 °F 43.0 °F 77% 29.94 in 10.0 mi NW 9.2 mph - N/A   Partly Cloudy
11:53 PM 51.1 °F 43.0 °F 74% 29.99 in 10.0 mi NW 9.2 mph 19.6 mph N/A   Mostly Cloudy